CW2404 Weather Reports


time (UTC)temp
C
wind
direction
speed
KPH
gust
KPH
rain 1hr
cm
rain 24hr
cm
rain mn
cm
humidity
%
barometer
mb
20260507213958 15 282 14.5 0.0 0.00 0.00 1.24 41 1002.0
20260507213529 16 301 12.9 0.0 0.00 0.00 1.24 38 1002.0
20260507213012 15 300 14.5 0.0 0.00 0.00 1.24 35 1002.0
20260507212447 15 320 19.3 0.0 0.00 0.00 1.24 40 1002.0
20260507211951 15 311 17.7 0.0 0.00 0.00 1.24 42 1002.0
20260507211516 15 296 14.5 0.0 0.00 0.00 1.24 42 1002.0
20260507210955 16 306 14.5 0.0 0.00 0.00 1.24 37 1001.9
20260507205522 16 293 4.8 0.0 0.00 0.00 1.24 45 1001.9
20260507205005 15 105 0.0 0.0 0.00 0.00 1.24 44 1001.9
20260507204453 15 105 0.0 0.0 0.00 0.00 1.24 45 1001.9
20260507203945 15 105 0.0 0.0 0.00 0.00 1.24 41 1001.9
20260507203528 15 105 0.0 0.0 0.00 0.00 1.24 41 1001.9
20260507202451 15 105 1.6 0.0 0.00 0.00 1.24 44 1001.9
20260507202046 15 105 8.0 0.0 0.00 0.00 1.24 45 1001.9
20260507201501 15 296 16.1 0.0 0.00 0.00 1.24 34 1001.9
20260507200943 15 297 17.7 0.0 0.00 0.00 1.24 38 1002.0
20260507200524 13 296 19.3 0.0 0.00 0.00 1.24 44 1001.9
20260507195503 14 299 25.7 0.0 0.00 0.00 1.24 41 1002.0
20260507195023 14 318 22.5 0.0 0.00 0.00 1.24 42 1002.0
20260507194006 14 290 17.7 0.0 0.00 0.00 1.24 43 1002.1
20260507193451 15 232 17.7 0.0 0.00 0.00 1.24 42 1002.1
20260507193046 14 301 20.9 0.0 0.00 0.00 1.24 49 1002.1
20260507192009 15 315 14.5 0.0 0.00 0.00 1.24 44 1002.3
20260507191451 16 254 12.9 0.0 0.00 0.00 1.24 40 1002.3
20260507191023 16 277 9.7 0.0 0.00 0.00 1.24 38 1002.4
20260507190434 15 290 4.8 0.0 0.00 0.00 1.24 42 1002.4
20260507190014 15 105 0.0 0.0 0.00 0.00 1.24 49 1002.4
20260507185449 15 105 0.0 0.0 0.00 0.00 1.24 45 1002.5
20260507185004 15 105 0.0 0.0 0.00 0.00 1.24 46 1002.5
20260507184450 15 105 0.0 0.0 0.00 0.00 1.24 47 1002.5
20260507183015 15 105 0.0 0.0 0.00 0.00 1.24 50 1002.6
20260507182452 15 105 0.0 0.0 0.00 0.00 1.24 41 1002.9
20260507182014 15 105 0.0 0.0 0.00 0.00 1.24 48 1002.9
20260507181440 15 105 0.0 0.0 0.00 0.00 1.24 45 1002.9
20260507181021 15 105 0.0 0.0 0.00 0.00 1.24 48 1003.0
20260507175455 15 289 9.7 0.0 0.00 0.00 1.24 45 1002.9
20260507175019 15 262 12.9 0.0 0.00 0.00 1.24 46 1002.9
20260507172950 16 261 12.9 0.0 0.00 0.00 1.24 45 1002.9
20260507172530 15 288 12.9 0.0 0.00 0.00 1.24 49 1003.0
20260507171951 16 261 11.3 0.0 0.00 0.00 1.24 47 1003.0
20260507171441 16 287 8.0 0.0 0.00 0.00 1.24 49 1003.0
20260507171001 16 255 9.7 0.0 0.00 0.00 1.24 49 1003.0
20260507170452 16 218 11.3 0.0 0.00 0.00 1.24 49 1003.0
20260507165941 16 215 9.7 0.0 0.00 0.00 1.24 49 1003.0
20260507165017 13 186 8.0 0.0 0.00 0.00 1.24 59 1003.3
20260507164522 13 284 6.4 0.0 0.00 0.00 1.24 58 1003.3
20260507163952 13 321 9.7 0.0 0.00 0.00 1.24 59 1003.5
20260507163532 13 337 9.7 0.0 0.00 0.00 1.24 58 1003.5
20260507162958 14 255 9.7 0.0 0.00 0.00 1.24 54 1003.5
20260507162528 15 287 8.0 0.0 0.00 0.00 1.24 53 1003.6
20260507161500 14 63 6.4 0.0 0.00 0.00 1.24 57 1003.6
20260507160938 14 34 4.8 0.0 0.00 0.00 1.24 59 1003.9
20260507160518 14 106 4.8 0.0 0.00 0.00 1.24 56 1003.9
20260507160012 15 348 3.2 0.0 0.00 0.00 1.24 53 1003.9
20260507155010 14 285 3.2 0.0 0.00 0.00 1.24 52 1004.0
20260507154447 14 244 1.6 0.0 0.00 0.00 1.24 54 1004.0
20260507154028 14 219 3.2 0.0 0.00 0.00 1.24 54 1004.1
20260507153455 14 333 3.2 0.0 0.00 0.00 1.24 51 1004.1
20260507153043 14 289 4.8 0.0 0.00 0.00 1.24 50 1004.1
20260507152505 14 285 3.2 0.0 0.00 0.00 1.24 53 1004.3
20260507151958 14 312 1.6 0.0 0.00 0.00 1.24 55 1004.3
20260507151546 13 121 3.2 0.0 0.00 0.00 1.24 54 1004.3
20260507151003 13 22 1.6 0.0 0.00 0.00 1.24 56 1004.5
20260507150453 13 67 0.0 0.0 0.00 0.00 1.24 59 1004.5
20260507150020 13 105 1.6 0.0 0.00 0.00 1.24 59 1004.5
20260507145509 12 11 3.2 0.0 0.00 0.00 1.24 61 1004.5
20260507144954 12 26 3.2 0.0 0.00 0.00 1.24 62 1004.5
20260507144436 12 25 1.6 0.0 0.00 0.00 1.24 64 1004.5
20260507144005 12 17 1.6 0.0 0.00 0.00 1.24 69 1004.6
20260507143438 12 353 1.6 0.0 0.00 0.00 1.24 71 1004.6
20260507143014 12 3 3.2 0.0 0.00 0.00 1.24 71 1004.6
20260507142500 12 19 1.6 0.0 0.00 0.00 1.24 70 1004.6
20260507142027 11 360 1.6 0.0 0.00 0.00 1.24 70 1004.6
20260507141508 11 350 3.2 0.0 0.00 0.00 1.24 70 1004.6
20260507140948 11 318 4.8 0.0 0.00 0.00 1.24 71 1004.6
20260507140437 11 346 6.4 0.0 0.00 0.00 1.24 72 1004.6
20260507140014 11 332 8.0 0.0 0.00 0.00 1.24 72 1004.6
20260507135452 10 348 6.4 0.0 0.00 0.00 1.24 74 1004.6
20260507134944 11 339 4.8 0.0 0.00 0.00 1.24 77 1004.6
20260507134538 11 339 4.8 0.0 0.00 0.00 1.24 77 1004.6
20260507133959 11 325 8.0 0.0 0.00 0.00 1.24 77 1004.6
20260507133444 10 348 9.7 0.0 0.00 0.00 1.24 77 1004.6
20260507133027 10 332 11.3 0.0 0.00 0.00 1.24 78 1004.6
20260507132449 10 336 11.3 0.0 0.00 0.00 1.24 77 1004.6
20260507131932 10 317 14.5 0.0 0.00 0.00 1.24 78 1004.6
20260507131503 10 296 16.1 0.0 0.00 0.00 1.24 78 1004.6
20260507130947 10 320 17.7 0.0 0.00 0.00 1.24 77 1004.8
20260507130523 10 303 17.7 0.0 0.00 0.00 1.24 77 1004.8
20260507130018 10 315 16.1 0.0 0.00 0.00 1.24 78 1004.8
20260507125503 10 291 14.5 0.0 0.00 0.00 1.24 79 1004.9
20260507124944 10 317 14.5 0.0 0.00 0.00 1.24 79 1004.9
20260507124502 10 305 12.9 0.0 0.00 0.00 1.24 79 1004.9
20260507123938 10 299 14.5 0.0 0.00 0.00 1.24 79 1005.1
20260507123523 10 302 14.5 0.0 0.00 0.00 1.24 79 1005.1
20260507122955 10 292 16.1 0.0 0.00 0.00 1.24 80 1005.1
20260507122516 10 296 17.7 0.0 0.00 0.00 1.24 78 1004.6
20260507122002 9 316 17.7 0.0 0.00 0.00 1.24 78 1004.6
20260507121526 9 258 16.1 0.0 0.00 0.00 1.24 78 1004.6
20260507120932 9 313 14.5 0.0 0.00 0.00 1.24 79 1004.5
20260507120506 9 325 14.5 0.0 0.00 0.00 1.24 79 1004.5
20260507114500 9 294 11.3 0.0 0.00 0.00 1.24 79 1004.6
20260507113942 9 294 11.3 0.0 0.00 0.00 1.24 80 1004.5
20260507113529 9 305 9.7 0.0 0.00 0.00 1.24 80 1004.5
20260507113005 9 278 9.7 0.0 0.00 0.00 1.24 80 1004.5
20260507112514 9 278 12.9 0.0 0.00 0.00 1.24 80 1004.4
20260507111506 9 302 11.3 0.0 0.00 0.00 1.24 80 1004.4
20260507110957 9 304 6.4 0.0 0.00 0.00 1.24 81 1004.2
20260507110435 9 291 8.0 0.0 0.00 0.00 1.24 82 1004.2
20260507110023 9 287 12.9 0.0 0.00 0.00 1.24 81 1004.2
20260507105457 8 305 11.3 0.0 0.00 0.00 1.24 82 1004.4
20260507104934 9 299 11.3 0.0 0.00 0.00 1.22 82 1004.4
20260507104518 8 305 9.7 0.0 0.00 0.00 1.22 82 1004.4
20260507103934 8 293 8.0 0.0 0.00 0.00 1.14 83 1004.8
20260507103511 9 296 11.3 0.0 0.00 0.00 1.12 83 1004.8
20260507103030 9 272 11.3 0.0 0.00 0.00 0.33 81 1004.8
20260507102513 9 280 16.1 0.0 0.00 0.00 0.33 79 1004.5
20260507102025 9 266 20.9 0.0 0.00 0.00 0.28 79 1004.5
20260507101518 9 325 24.1 0.0 0.00 0.00 0.28 79 1004.5
20260507101007 9 325 20.9 0.0 0.00 0.00 0.28 78 1004.2
20260507100445 9 308 24.1 0.0 0.00 0.00 0.28 78 1004.2
20260507095936 9 318 27.4 0.0 0.00 0.00 0.28 79 1004.2
20260507095523 9 327 29.0 0.0 0.00 0.00 0.28 78 1004.2
20260507095001 9 325 24.1 0.0 0.00 0.00 0.28 79 1004.2
20260507094451 9 332 22.5 0.0 0.00 0.00 0.28 79 1004.2
20260507094048 9 302 20.9 0.0 0.00 0.00 0.28 80 1004.0
20260507093522 9 303 14.5 0.0 0.00 0.00 0.28 81 1004.0
20260507092933 10 299 16.1 0.0 0.00 0.00 0.28 83 1004.1
20260507092511 10 263 19.3 0.0 0.00 0.00 0.28 83 1003.5
20260507092012 10 322 20.9 0.0 0.00 0.00 0.28 82 1003.5
20260507091453 10 277 22.5 0.0 0.00 0.00 0.25 84 1003.5
20260507090944 10 294 20.9 0.0 0.00 0.00 0.25 85 1003.6
20260507090527 10 309 11.3 0.0 0.00 0.00 0.23 85 1003.6
20260507090014 10 318 0.0 0.0 0.00 0.00 0.23 88 1003.6
20260507085503 10 105 0.0 0.0 0.00 0.00 0.23 89 1003.9
20260507085020 10 105 0.0 0.0 0.00 0.00 0.20 89 1003.9
20260507084457 10 105 0.0 0.0 0.00 0.00 0.18 90 1003.9
20260507083937 10 105 0.0 0.0 0.00 0.00 0.18 90 1003.5
20260507083522 10 105 0.0 0.0 0.00 0.00 0.15 90 1003.5
20260507083000 10 105 0.0 0.0 0.00 0.00 0.13 89 1003.5
20260507082444 10 105 0.0 0.0 0.00 0.00 0.10 89 1003.9
20260507082025 10 105 0.0 0.0 0.00 0.00 0.10 89 1003.9
20260507081453 10 105 0.0 0.0 0.00 0.00 0.08 88 1003.9
20260507081029 10 105 0.0 0.0 0.00 0.00 0.08 88 1003.5
20260507080453 10 105 0.0 0.0 0.00 0.00 0.08 87 1003.5
20260507075930 10 105 0.0 0.0 0.00 0.00 0.05 87 1003.5
20260507075507 10 105 0.0 0.0 0.00 0.00 0.03 86 1003.3
20260507074934 11 105 0.0 0.0 0.00 0.00 0.00 84 1003.3
20260507074529 11 105 0.0 0.0 0.00 0.00 0.00 83 1003.3
20260507074010 11 105 0.0 0.0 0.00 0.00 0.00 86 1002.9
20260507073450 11 105 0.0 0.0 0.00 0.00 0.00 86 1002.9
20260507073021 11 105 0.0 0.0 0.00 0.00 0.00 86 1002.9
20260507072017 11 105 0.0 0.0 0.00 0.00 0.00 86 1002.6
20260507071438 11 105 0.0 0.0 0.00 0.00 0.00 88 1002.6
20260507071006 11 105 0.0 0.0 0.00 0.00 0.00 87 1002.6
20260507070528 11 105 0.0 0.0 0.00 0.00 0.00 87 1002.6
20260507065958 12 105 0.0 0.0 0.00 0.00 0.00 87 1002.6
20260507065527 12 105 0.0 0.0 0.00 0.00 0.00 86 1002.9
20260507065027 12 105 0.0 0.0 0.00 0.00 0.00 86 1002.9
20260507064452 11 105 0.0 0.0 0.00 0.00 0.00 87 1002.9
20260507064048 11 105 0.0 0.0 0.00 0.00 0.00 87 1002.5
20260507062958 12 105 1.6 0.0 0.00 0.00 0.00 87 1002.5
20260507062444 12 105 8.0 0.0 0.00 0.00 0.00 87 1002.7
20260507061932 12 303 11.3 0.0 0.00 0.00 0.00 84 1002.7
20260507061516 12 298 6.4 0.0 0.00 0.00 0.00 86 1002.7
20260507061026 12 303 3.2 0.0 0.00 0.00 0.00 85 1002.9
20260507060436 12 105 0.0 0.0 0.00 0.00 0.00 89 1002.9
20260507055949 12 105 0.0 0.0 0.00 0.00 0.00 89 1002.9
20260507055432 12 105 0.0 0.0 0.00 0.00 0.00 89 1003.0
20260507054938 12 105 0.0 0.0 0.00 0.00 0.00 91 1003.0
20260507054441 12 105 0.0 0.0 0.00 0.00 0.00 88 1003.0
20260507053949 13 105 0.0 0.0 0.00 0.00 0.00 89 1003.0
20260507053436 13 105 0.0 0.0 0.00 0.00 0.00 90 1003.0
20260507052946 14 105 0.0 0.0 0.00 0.00 0.00 91 1003.0
20260507052436 14 105 0.0 0.0 0.00 0.00 0.00 93 1003.0
20260507051949 13 105 0.0 0.0 0.00 0.00 0.00 93 1003.0
20260507051433 13 105 0.0 0.0 0.00 0.00 0.00 93 1003.0
20260507050945 14 105 0.0 0.0 0.00 0.00 0.00 93 1003.0
20260507050434 14 105 0.0 0.0 0.00 0.00 0.00 94 1003.0
20260507045940 13 105 0.0 0.0 0.00 0.00 0.00 94 1003.0
20260507045450 13 105 0.0 0.0 0.00 0.00 0.00 94 1003.0
20260507044937 13 105 0.0 0.0 0.00 0.00 0.00 93 1003.0
20260507044442 13 105 0.0 0.0 0.00 0.00 0.00 92 1003.0
20260507043946 13 105 0.0 0.0 0.00 0.00 0.00 92 1002.6
20260507043438 13 105 0.0 0.0 0.00 0.00 0.00 93 1002.6
20260507042932 13 105 0.0 0.0 0.00 0.00 0.00 93 1002.6
20260507042439 13 105 0.0 0.0 0.00 0.00 0.00 93 1003.0
20260507041942 13 105 0.0 0.0 0.00 0.00 0.00 93 1003.0
20260507041448 13 105 0.0 0.0 0.00 0.00 0.00 93 1003.0
20260507040933 13 105 0.0 0.0 0.00 0.00 0.00 93 1003.1
20260507040444 13 105 0.0 0.0 0.00 0.00 0.00 93 1003.1
20260507040052 13 105 0.0 0.0 0.00 0.00 0.00 93 1003.1
20260507035515 13 105 0.0 0.0 0.00 0.00 0.05 93 1003.0
20260507034949 13 105 0.0 0.0 0.00 0.00 0.05 92 1003.0
20260507034439 13 105 9.7 0.0 0.00 0.00 0.05 92 1003.0
20260507034023 13 105 20.9 0.0 0.00 0.00 0.05 92 1003.0
20260507033456 13 227 25.7 0.0 0.00 0.00 0.05 90 1003.0
20260507033038 13 237 27.4 0.0 0.00 0.00 0.05 90 1003.0
20260507032452 13 221 25.7 0.0 0.00 0.00 0.05 90 1002.8
20260507032027 13 220 25.7 0.0 0.00 0.00 0.05 90 1002.8
20260507031453 13 234 12.9 0.0 0.00 0.00 0.05 89 1002.8
20260507030946 13 105 0.0 0.0 0.00 0.00 0.05 92 1002.5
20260507030517 13 105 0.0 0.0 0.00 0.00 0.05 92 1002.5
20260507030000 13 105 0.0 0.0 0.00 0.00 0.05 92 1002.5
20260507025514 13 105 0.0 0.0 0.00 0.00 0.05 92 1002.7
20260507024947 13 105 0.0 0.0 0.00 0.00 0.05 92 1002.7
20260507024518 13 105 0.0 0.0 0.00 0.00 0.05 92 1002.7
20260507024006 13 105 0.0 0.0 0.00 0.00 0.05 92 1002.5
20260507023522 13 105 0.0 0.0 0.00 0.00 0.05 93 1002.5
20260507022950 13 105 0.0 0.0 0.00 0.00 0.05 93 1002.5
20260507022026 13 105 0.0 0.0 0.00 0.00 0.05 93 1002.6
20260507021445 13 105 0.0 0.0 0.00 0.00 0.05 93 1002.6
20260507021018 13 105 0.0 0.0 0.00 0.00 0.05 93 1002.7
20260507020445 13 105 0.0 0.0 0.00 0.00 0.05 92 1002.7
20260507015946 13 105 11.3 0.0 0.00 0.00 0.05 92 1002.7
20260507015506 13 105 22.5 0.0 0.00 0.00 0.05 90 1003.0
20260507014938 13 225 27.4 0.0 0.00 0.00 0.05 89 1003.0
20260507014520 13 230 29.0 0.0 0.00 0.00 0.05 89 1003.0
20260507013955 13 228 32.2 0.0 0.00 0.00 0.05 89 1003.0
20260507013529 13 225 32.2 0.0 0.00 0.00 0.05 89 1003.0
20260507012949 13 223 33.8 0.0 0.00 0.00 0.05 89 1003.0
20260507012515 13 219 35.4 0.0 0.00 0.00 0.05 89 1003.2
20260507011950 13 224 37.0 0.0 0.00 0.00 0.05 89 1003.2
20260507011525 13 210 37.0 0.0 0.00 0.00 0.05 89 1003.2
20260507010955 13 211 35.4 0.0 0.00 0.00 0.05 89 1003.1
20260507010521 13 224 33.8 0.0 0.00 0.00 0.05 88 1003.1
20260507005514 13 232 6.4 0.0 0.00 0.00 0.05 88 1003.1
20260507004954 13 105 0.0 0.0 0.00 0.00 0.05 91 1003.1
20260507004513 13 105 9.7 0.0 0.00 0.00 0.05 91 1003.1
20260507003449 13 217 27.4 0.0 0.00 0.00 0.05 85 1003.1
20260507003049 13 227 25.7 0.0 0.00 0.00 0.05 85 1003.1
20260507002521 13 210 25.7 0.0 0.00 0.00 0.05 85 1003.1
20260507001956 13 216 25.7 0.0 0.00 0.00 0.05 85 1003.1
20260507001433 13 190 27.4 0.0 0.00 0.00 0.05 84 1003.1
20260507001030 13 231 27.4 0.0 0.00 0.00 0.05 85 1002.9
20260507000444 13 211 29.0 0.0 0.00 0.00 0.05 84 1002.9
20260507000003 13 229 27.4 0.0 0.00 0.00 0.05 84 1002.9
20260506235432 13 226 29.0 0.0 0.00 0.00 0.05 84 1002.7
20260506235010 13 234 32.2 0.0 0.00 0.00 0.05 84 1002.7
20260506234459 13 224 33.8 0.0 0.00 0.00 0.05 84 1002.7
20260506233952 13 264 33.8 0.0 0.00 0.00 0.05 84 1002.7
20260506233522 13 227 33.8 0.0 0.00 0.00 0.05 84 1002.7
20260506232954 13 223 33.8 0.0 0.00 0.00 0.05 84 1002.7
20260506232548 13 0.0 0.0 0.00 0.00 0.05 84 1003.0
20260506232011 13 228 30.6 0.0 0.00 0.00 0.05 84 1003.0
20260506231448 13 221 29.0 0.0 0.00 0.00 0.05 84 1003.0
20260506230951 13 184 29.0 0.0 0.00 0.00 0.05 84 1003.1
20260506230450 13 211 29.0 0.0 0.00 0.00 0.05 84 1003.1
20260506230017 13 225 27.4 0.0 0.00 0.00 0.05 85 1003.1
20260506225503 13 228 27.4 0.0 0.00 0.00 0.05 84 1003.2
20260506224941 13 202 30.6 0.0 0.00 0.00 0.05 85 1003.2
20260506224510 13 199 30.6 0.0 0.00 0.00 0.05 85 1003.2
20260506223951 13 204 29.0 0.0 0.00 0.00 0.05 85 1003.5
20260506223434 13 190 29.0 0.0 0.00 0.00 0.05 84 1003.5
20260506223020 13 219 29.0 0.0 0.00 0.00 0.05 84 1003.5
20260506222457 13 222 29.0 0.0 0.00 0.00 0.05 84 1003.6
20260506221938 13 245 27.4 0.0 0.00 0.00 0.05 84 1003.6
20260506221504 13 218 27.4 0.0 0.00 0.00 0.05 84 1003.6
20260506220940 13 213 22.5 0.0 0.00 0.00 0.05 84 1003.7
20260506220517 13 198 4.8 0.0 0.00 0.00 0.05 89 1003.7
20260506220002 14 104 0.0 0.0 0.00 0.00 0.05 89 1003.7
20260506215534 14 105 0.0 0.0 0.00 0.00 0.05 88 1003.7
20260506214935 14 105 22.5 0.0 0.00 0.00 0.05 88 1003.7
20260506214503 14 221 33.8 0.0 0.00 0.00 0.05 85 1003.7